Location: Latta
(44.3000°N, 77.3397°W)
Time: 02:03:45
(UTC+00:00)

X-37B - Visible Passes

Search period start: 29 November 2022 00:00
Search period end: 09 December 2022 00:00
Orbit: 277 x 277 km, 45.0° (Epoch: 01 November)

Date Brightness Start Highest point End Pass type
(mag) Time Alt. Az. Time Alt. Az. Time Alt. Az.
06 Dec 3.0 23:31:36 10° SSW 23:32:02 13° SSW 23:32:02 13° SSW visible
07 Dec 2.6 23:31:54 10° SW 23:32:48 18° SW 23:32:48 18° SW visible
08 Dec 2.4 23:32:25 10° WSW 23:33:32 23° SW 23:33:32 23° SW visible
